Regional Weather Roundup
Issued by NWS

Home | Current Version | Previous Version | Text Only | Print | Product List | Glossary On
Versions: 1 2 3 4 5 6 7 8 9 10 11 12 13 14 15 16 17 18 19 20 21 22 23 24 25 26 27 28 29 30 31 32 33 34 35 36 37 38 39 40 41 42 43 44 45 46 47 48 49 50
000
ASUS43 KLMK 150502
RWRKY
KENTUCKY REGIONAL WEATHER ROUNDUP
NATIONAL WEATHER SERVICE LOUISVILLE KY
100 AM EDT MON SEP 15 2014

NOTE "FAIR" INDICATES FEW OR NO CLOUDS BELOW 12,000 FEET
WITH NO SIGNIFICANT WEATHER AND/OR OBSTRUCTIONS TO VISIBILITY.

KYZ001>023-026-027-061>063-070>075-150600-
WESTERN AND SOUTH CENTRAL KENTUCKY

CITY           SKY/WX    TMP DP  RH WIND       PRES   REMARKS
PADUCAH        CLEAR     54  52  93 CALM      30.19S
HENDERSON      CLEAR     48  46  93 CALM      30.20F
OWENSBORO      CLEAR     54  52  93 CALM      30.20F
HOPKINSVILLE   NOT AVBL
BOWLING GREEN  CLEAR     56  52  86 CALM      30.21S
GLASGOW        NOT AVBL
$$

KYZ024-025-028>034-038-045-046-053-150600-
NORTH CENTRAL KENTUCKY

CITY           SKY/WX    TMP DP  RH WIND       PRES   REMARKS
LOUISVILLE/SDF CLEAR     58  52  80 CALM      30.21S
LOUISVILLE/LOU CLEAR     56  52  86 CALM      30.22R
FORT KNOX      NOT AVBL
$$

KYZ035>037-039>044-047>052-055>060-089>105-150600-
NORTHEAST KENTUCKY

CITY           SKY/WX    TMP DP  RH WIND       PRES   REMARKS
LEXINGTON      CLEAR     55  50  83 E3        30.22S
COVINGTON      CLEAR     52  49  89 CALM      30.21S
FRANKFORT      CLEAR     51  50  96 CALM      30.21S
$$

KYZ054-064>069-076>088-106>120-150600-
SOUTHEAST KENTUCKY

CITY           SKY/WX    TMP DP  RH WIND       PRES   REMARKS
JACKSON        CLEAR     58  53  84 CALM      30.22S
LONDON         CLEAR     58  55  90 CALM      30.22R
SOMERSET       NOT AVBL
MIDDLESBORO    MOCLDY    61  61  98 NW3       30.22S
MONTICELLO     CLEAR     54  54 100 CALM      30.23S FOG
$$




USA.gov is the U.S. government's official web portal to all federal, state and local government web resources and services.